Regional Weather Roundup
Issued by NWS Midland/Odessa, TX

Home | Current Version | Previous Version | Text Only | Print | Product List | Glossary On
Versions: 1 2 3 4 5 6 7 8 9 10 11 12 13 14 15 16 17 18 19 20 21 22 23 24 25 26 27 28 29 30 31 32 33 34 35 36 37 38 39 40 41 42 43 44 45 46 47 48 49 50
603
ASUS44 KMAF 261210
RWRMAF
MIDLAND AREA WEATHER ROUNDUP
NATIONAL WEATHER SERVICE MIDLAND TX
700 AM CDT THU MAY 26 2016

...IN SOUTHWEST TEXAS AND SOUTHEAST NEW MEXICO...

CITY           SKY/WX    TMP DP  RH WIND       PRES   REMARKS
ALPINE         CLEAR     67  45  43 S9        30.08F
ANDREWS        FAIR      69  69 100 SW9       29.90S FOG
ARTESIA        CLEAR     57  18  21 W12       29.90S
BIG SPRING     CLOUDY    70  63  78 SE8       29.90R
CARLSBAD       CLEAR     66  24  20 NW9       29.89S
DRYDEN           N/A     76  61  59 SW8       29.87S
FORT STOCKTON  CLEAR     72  52  49 SW10      29.91R
GUAD PASS      NOT AVBL
HOBBS          CLEAR     59  59 100 S9        29.93R
MARFA          CLEAR     58  44  60 S8        30.06S
MIDLAND AIRPK  MOCLDY    76  66  72 S10       29.89S
MIDLAND INTL   MOCLDY    75  65  70 S10       29.88S
ODESSA         PTCLDY    74  66  76 S12       29.89S
PECOS          CLEAR     64  52  65 CALM      29.89R
PRESIDIO       FAIR      76  46  35 NE5       29.94R
SEMINOLE       CLEAR     67  63  86 SW8       29.91R
SNYDER           N/A     71  58  64 S5        29.88F
WINK           CLEAR     67  65  93 MISG      29.87S
$$
...OTHER STATIONS IN TEXAS...

CITY           SKY/WX    TMP DP  RH WIND       PRES   REMARKS
ABILENE        CLOUDY    75  58  55 SW7       29.87R
AMARILLO       CLEAR     61  54  77 SW12      29.88S
AUSTIN         LGT RAIN  78  76  93 S8        29.93S FOG
BROWNSVILLE    CLOUDY    80  78  94 S7        29.96R
CORPUS CHRISTI CLOUDY    81  78  91 S10       29.95R FOG
DALLAS FTW     CLOUDY    78  72  81 S16       29.91F
DEL RIO        CLOUDY    76  66  71 E10       29.88R
EL PASO        CLEAR     71  27  19 W17G29    29.96R
HOUSTON INT    CLOUDY    78  75  90 S12       29.99R
LUBBOCK        MOCLDY    71  64  78 S18       29.87R
SAN ANGELO     CLOUDY    68  65  90 SE6       29.89R
SAN ANTONIO    CLOUDY    78  75  90 S9        29.94S
WACO           TSTM      77  73  87 S13       29.93F
WICHITA FALLS  NOT AVBL
$$
...OTHER LOCATIONS IN NEW MEXICO...

CITY           SKY/WX    TMP DP  RH WIND       PRES   REMARKS
ALAMAGORDO     CLEAR     55  18  22 E3        29.98S
ALBUQUERQUE    CLEAR     51  15  23 SE6       29.98S
CANNON AFB     MOCLDY    57  44  60 SW7       29.92R
CLOVIS         PTCLDY    61  43  51 SW13      29.91S
HOLLOMAN AFB   CLEAR     62  20  19 S6        29.96S
ROSWELL        CLEAR     61  21  21 W9        29.90R
RUIDOSO          N/A     50  18  27 SW14      30.08S
SANTA FE       CLOUDY    40  20  44 N5        29.99F WCI  37
TRUTH OR CONSE CLEAR     57  19  22 W7        29.96S
TUCUMCARI      CLEAR     56  25  30 SW7       29.87R
$$




USA.gov is the U.S. government's official web portal to all federal, state and local government web resources and services.